Zurück zum Katalog

STARLINK-36218

AktivKommunikationVLEO
NORAD 69968·PAYLOAD·🇺🇸 United States

Gestartet Jul 9, 2026 von Cape Canaveral Space Force Station

Loading…

Nächste Überflüge (nächste 24 Stunden)

TLE

AktuellSource: CelesTrak SupGP

Epoche: Sep 15, 2026, 02:50 UTC

1 69968C 26157AB  26258.11854167  .00066608  00000+0  19676-2 0  2589
2 69968  53.1601 358.7033 0001145  75.2905 116.2951 15.34363496    14

Verfolge STARLINK-36218 in Echtzeit mit AllMySat

Download on the App Store